リニア-ニート彗星

204P/LINEAR-NEAT (2008)

English version
Home page
Total 6,336 html files since Dec. 4, 1995
Updated on November 9, 2008

---------------------------------------------------------------------

・ プロフィール

符号 204P/2008 R5
検出日 2008年9月8日
検出光度
検出者 J. V. Scotti (Spacewatch), G. V. Williams (Minor Planet Center)

・ 軌道要素

Epoch 2008 Nov. 30.0 TT = JDT 2454800.5
T 2008 Dec.  9.27116 TT                                 MPC
q   1.9402351            (2000.0)            P               Q
n   0.14049050     Peri.  355.03882     -0.24491992     -0.96347594
a   3.6646971      Node   109.10646     +0.89343474     -0.26766296
e   0.4705606      Incl.    6.58120     +0.37654826     +0.00840514
P   7.02

・ 星図

・ 光度変化

        m1 = 4.5 + 5 logΔ + 40 log r(t - 50)

---------------------------------------------------------------------

軌道要素はM.P.E.C. 2008-R54に掲載されたものです。
星図はステラナビゲータ Ver.8 (アストロアーツ) で作成したものです。
光度グラフはComet for Windowsで作成したものです。

---------------------------------------------------------------------

Copyright(C) 1995-2008 Seiichi Yoshida (comet@aerith.net). All rights reserved.